Regional Weather Roundup
Issued by NWS

Home | Current Version | Previous Version | Graphics & Text | Print | Product List | Glossary On
Versions: 1 2 3 4 5 6 7 8 9 10 11 12 13 14 15 16 17 18 19 20 21 22 23 24 25 26 27 28 29 30 31 32 33 34 35 36 37 38 39 40 41 42 43 44 45 46 47 48 49 50
000
ASUS43 KFSD 220910
RWRSD

WEATHER ROUNDUP FOR SOUTH DAKOTA
NATIONAL WEATHER SERVICE SIOUX FALLS SD
300 AM CST MON JAN 22 2018

NOTE: "FAIR" INDICATES FEW OR NO CLOUDS BELOW 12,000 FEET WITH NO
SIGNIFICANT WEATHER AND/OR OBSTRUCTIONS TO VISIBILITY.


SDZ001>005-009-010-012>017-221000-
NORTHWEST AND NORTH CENTRAL SOUTH DAKOTA

CITY           SKY/WX    TMP DP  RH WIND       PRES   REMARKS
BUFFALO          N/A     20  13  74 W5        29.92S WCI  13
FAITH            N/A     21  18  88 NW12      29.96S WCI   9
MOBRIDGE       FOG       23  20  88 N8        29.95F VSB 1/4 WCI  14
$$

SDZ012>016-024>037-041>051-057-063-072>074-221000-
SOUTHWEST AND SOUTH CENTRAL SOUTH DAKOTA

CITY           SKY/WX    TMP DP  RH WIND       PRES   REMARKS
RAPID CTY ARPT CLEAR     28  18  66 NW18      29.95S WCI  15
PIERRE         CLOUDY    24  24 100 N7        29.97R FOG     WCI  16
CUSTER         PTCLDY    23  11  60 N13G20    29.88F WCI  11
ELLSWORTH AFB  CLEAR     30  19  63 NW22      29.94F WCI  17
PHILIP         CLOUDY    25  23  92 NW13      29.96R WCI  14
PINE RIDGE     MOCLDY    18  16  92 SW6       29.95R WCI  10
SPEARFISH        N/A     21  14  73 W9        29.98S WCI  11
WINNER         CLOUDY    28  26  92 N17       29.91R FOG     WCI  16
$$

SDZ004>011-016>023-039-040-221000-
NORTHEAST SOUTH DAKOTA

CITY           SKY/WX    TMP DP  RH WIND       PRES   REMARKS
ABERDEEN       CLOUDY    24  22  91 NE17      30.01R WCI  11
WATERTOWN      FOG       22  21  96 N20       29.90F VSB 1   WCI   7
BROOKINGS      CLOUDY    26  24  92 N18       29.86F WCI  13
SISSETON         N/A     24  23  96 N14       29.98S WCI  12
$$

SDZ017-020-022-023-036>040-048>070-221000-
SOUTHEAST SOUTH DAKOTA

CITY           SKY/WX    TMP DP  RH WIND       PRES   REMARKS
SIOUX FALLS    CLOUDY    31  28  89 NE20G33   29.78S WCI  19
HURON          CLOUDY    24  23  96 N15       29.93S WCI  11
CHAMBERLAIN    CLOUDY    28  27  96 NW14G23   29.92S WCI  16
MITCHELL       MIX PCPN  28  27  96 N16       29.89F WCI  16
YANKTON        FLURRIES  34  30  86 N24G33    29.73F WCI  21
$$

ABBREVIATIONS USED IN REMARKS
   TC - TEMPERATURE IN CELSIUS
  WCI - WIND CHILL INDEX
   HX - HEAT INDEX
  VSB - VISIBILITY




USA.gov is the U.S. government's official web portal to all federal, state and local government web resources and services.